Flag for India Weather past 2 weeks in Gurgaon, Haryana, India

Now
82 °F

Haze.


Feels Like: 86 °F
Forecast: 78 / 96 °F
Wind: 5 mph from West

Location: New Delhi Palam Airport

Current Time: Sep 2, 2015 at 8:58:01 AM

Latest Report: Sep 2, 2015 at 8:00 AM


Visibility: 2 mi

Pressure: 29.65 "Hg

Humidity: 66%

Dew point: 70 °F

Location of GurgaonLocation

Historic Weather in Gurgaon — Graph

°F

Gurgaon temperature yesterday

Maximum temperature yesterday: 95 °F (at 12:30 PM)
Minimum temperature yesterday: 81 °F (at 4:00 AM)
Average temperature yesterday: 88 °F

Past Weeks' High & Low Weather Summary

 TemperatureHumidityPressure
High99 °F (Aug 28, 2:30 PM)94% (Aug 18, 8:00 PM)29.74 "Hg (Aug 18, 8:00 PM)
Low75 °F (Aug 23, 11:30 PM)41% (Sep 1, 12:30 PM)29.56 "Hg (Aug 22, 3:30 PM)
Average88 °F68%29.63 "Hg
* Reported Aug 18 6:30 AM — Sep 2 7:00 AM, Gurgaon, Weather by CustomWeather, © 2015

Note: Actual official high and low records may vary slightly from our data, if they occured in-between our weather recording intervals... More about our weather records

Advertising

Gurgaon weather history for previous 24 hours

 ConditionsComfort  
Time TempWeatherWind HumidityBarometerVisibility
7:00 AM
Wed, Sep 2
81 °FHaze.7 mph70%29.65 "Hg2 mi
6:30 AM81 °FHaze.7 mph74%29.62 "Hg2 mi
6:00 AM81 °FHaze.7 mph74%29.62 "Hg2 mi
5:30 AM81 °FHaze.7 mph70%29.62 "Hg2 mi
5:00 AM81 °FHaze.7 mph74%29.62 "Hg2 mi
4:30 AM82 °FHaze.7 mph70%29.62 "Hg2 mi
4:00 AM82 °FHaze.7 mph70%29.62 "Hg2 mi
3:00 AM82 °FHaze.8 mph70%29.62 "Hg2 mi
2:30 AM82 °FHaze.9 mph70%29.62 "Hg2 mi
2:00 AM84 °FHaze.8 mph66%29.62 "Hg2 mi
1:30 AM84 °FHaze.7 mph66%29.62 "Hg2 mi
1:00 AM86 °FHaze.6 mph62%29.62 "Hg2 mi
12:30 AM86 °FHaze.7 mph66%29.62 "Hg2 mi
12:00 AM86 °FHaze.7 mph70%29.62 "Hg2 mi
11:30 PM
Tue, Sep 1
86 °FHaze.5 mph70%29.62 "Hg2 mi
11:00 PM88 °FHaze.5 mph62%29.62 "Hg2 mi
10:30 PM88 °FHaze.5 mph62%29.62 "Hg2 mi
10:00 PM88 °FHaze.6 mph62%29.62 "Hg2 mi
9:30 PM88 °FHaze.7 mph59%29.62 "Hg2 mi
9:00 PM88 °FHaze.6 mph55%29.62 "Hg2 mi
8:30 PM90 °FHaze.7 mph52%29.59 "Hg2 mi
8:00 PM90 °FHaze.6 mph52%29.59 "Hg2 mi
7:00 PM91 °FHaze.6 mph49%29.59 "Hg2 mi
6:30 PM93 °FHaze.9 mph47%29.56 "Hg2 mi
6:00 PM93 °FHaze.9 mph44%29.56 "Hg2 mi
5:30 PM95 °FScattered clouds.12 mph44%29.56 "Hg2 mi
5:00 PM95 °FScattered clouds.9 mph47%29.56 "Hg2 mi
4:30 PM95 °FScattered clouds.9 mph47%29.56 "Hg2 mi
4:00 PM95 °FScattered clouds.9 mph47%29.59 "Hg2 mi
3:30 PM95 °FScattered clouds.13 mph44%29.59 "Hg2 mi
3:00 PM95 °FScattered clouds.14 mph44%29.59 "Hg2 mi
2:30 PM95 °FHaze.9 mph44%29.59 "Hg3 mi
2:00 PM95 °FHaze.9 mph44%29.62 "Hg3 mi
1:00 PM95 °FHaze.9 mph41%29.62 "Hg3 mi
12:30 PM95 °FHaze.9 mph41%29.62 "Hg2 mi
12:00 PM93 °FHaze.9 mph44%29.65 "Hg2 mi
11:30 AM93 °FHaze.9 mph47%29.65 "Hg2 mi
11:00 AM91 °FHaze.9 mph49%29.65 "Hg2 mi
10:30 AM90 °FHaze.9 mph52%29.65 "Hg2 mi
10:00 AM90 °FHaze.9 mph52%29.65 "Hg2 mi
9:00 AM86 °FHaze.9 mph59%29.65 "Hg2 mi
8:30 AM86 °FHaze.13 mph59%29.65 "Hg2 mi
8:00 AM84 °FHaze.12 mph66%29.65 "Hg2 mi
Weather by CustomWeather, © 2015

See weather overviewHow to use our weather pages